When you browse on this site, cookies collect data to enhance your experience and personalize the content and advertising you see.
Visit our Privacy Policy to learn more. By continuing to use the site, you agree to this use of cookies and data.
  • En España
  • Lista de países
  • Para 7 días
  • Temperatura del agua
  • Mapa Satelital
  • El tiempo en el mapa
  • Informadores
  • user-avatar
    Iniciar sesión

    Tiempo cada hora Sliven

    Hoy, 18 Enero, Viernes

    Tiempo Temperatura Precipitaciones Viento Presión Humedad
    00:00 +3°C° 0 mm 1 mps 732 mmHg 85%
    01:00 +3°C° 0 mm 1 mps 732 mmHg 86%
    02:00 +2°C° 0 mm 1 mps 732 mmHg 87%
    03:00 +2°C° 0 mm 1 mps 731 mmHg 87%
    04:00 +2°C° 0 mm 1 mps 731 mmHg 87%
    05:00 +2°C° 0 mm 1 mps 731 mmHg 87%
    06:00 +2°C° 0 mm 1 mps 731 mmHg 87%
    07:00 +2°C° 0 mm 1 mps 731 mmHg 86%
    08:00 +2°C° 0 mm 1 mps 731 mmHg 86%
    09:00 +4°C° 0 mm 1 mps 731 mmHg 80%
    10:00 +5°C° 0 mm 1 mps 732 mmHg 74%
    11:00 +7°C° 0 mm 1 mps 732 mmHg 68%
    12:00 +6°C° 0 mm 2 mps 731 mmHg 67%
    13:00 +7°C° 0 mm 2 mps 731 mmHg 65%
    14:00 +8°C° 0 mm 2 mps 731 mmHg 63%
    15:00 +7°C° 0 mm 2 mps 731 mmHg 67%
    16:00 +6°C° 0 mm 1 mps 731 mmHg 72%
    17:00 +5°C° 0 mm 1 mps 731 mmHg 76%
    18:00 +5°C° 0 mm 1 mps 731 mmHg 73%
    19:00 +5°C° 0 mm 1 mps 731 mmHg 71%
    20:00 +4°C° 0 mm 1 mps 731 mmHg 68%
    21:00 +4°C° 0 mm 1 mps 731 mmHg 68%
    22:00 +4°C° 0 mm 1 mps 731 mmHg 68%
    23:00 +4°C° 0 mm 1 mps 731 mmHg 67%

    Mañana, 19 Enero, Sábado

    Tiempo Temperatura Precipitaciones Viento Presión Humedad
    00:00 +4°C° 0 mm 1 mps 731 mmHg 65%
    01:00 +4°C° 0 mm 1 mps 732 mmHg 63%
    02:00 +4°C° 0 mm 1 mps 732 mmHg 62%
    03:00 +4°C° 0 mm 1 mps 732 mmHg 64%
    04:00 +4°C° 0 mm 1 mps 732 mmHg 66%
    05:00 +3°C° 0 mm 2 mps 732 mmHg 69%
    06:00 +2°C° 0.1 mm 2 mps 733 mmHg 73%
    07:00 +3°C° 0.1 mm 1 mps 733 mmHg 77%
    08:00 +3°C° 0.1 mm 1 mps 734 mmHg 82%
    09:00 +4°C° 0.2 mm 1 mps 734 mmHg 81%
    10:00 +5°C° 0.2 mm 1 mps 735 mmHg 80%
    11:00 +5°C° 0.2 mm 2 mps 735 mmHg 79%
    12:00 +5°C° 0 mm 2 mps 735 mmHg 77%
    13:00 +6°C° 0 mm 2 mps 735 mmHg 76%
    14:00 +6°C° 0 mm 2 mps 735 mmHg 74%
    15:00 +5°C° 0 mm 2 mps 735 mmHg 78%
    16:00 +4°C° 0 mm 2 mps 735 mmHg 83%
    17:00 +3°C° 0 mm 2 mps 735 mmHg 87%
    18:00 +3°C° 0 mm 2 mps 735 mmHg 88%
    19:00 +2°C° 0 mm 3 mps 735 mmHg 90%
    20:00 +1°C° 0 mm 3 mps 736 mmHg 92%
    21:00 +1°C° 0.1 mm 3 mps 736 mmHg 92%
    22:00 +1°C° 0.1 mm 3 mps 736 mmHg 92%
    23:00 +1°C° 0.1 mm 3 mps 736 mmHg 92%

    Pasado mañana, 20 Enero, Domingo

    Tiempo Temperatura Precipitaciones Viento Presión Humedad
    00:00 +1°C° 0.1 mm 3 mps 736 mmHg 93%
    01:00 +2°C° 0.1 mm 2 mps 736 mmHg 94%
    02:00 +2°C° 0.1 mm 2 mps 735 mmHg 94%
    03:00 +3°C° 0.2 mm 2 mps 735 mmHg 95%
    04:00 +3°C° 0.2 mm 2 mps 735 mmHg 95%
    05:00 +3°C° 0.2 mm 2 mps 734 mmHg 96%
    06:00 +3°C° 0.2 mm 2 mps 734 mmHg 96%
    07:00 +3°C° 0.2 mm 2 mps 734 mmHg 96%
    08:00 +3°C° 0.2 mm 2 mps 734 mmHg 96%
    09:00 +4°C° 0.1 mm 2 mps 734 mmHg 96%
    10:00 +4°C° 0.1 mm 2 mps 734 mmHg 95%
    11:00 +5°C° 0.1 mm 2 mps 734 mmHg 95%
    12:00 +5°C° 0.1 mm 2 mps 733 mmHg 94%
    13:00 +5°C° 0.1 mm 2 mps 733 mmHg 94%
    14:00 +5°C° 0.1 mm 2 mps 732 mmHg 94%
    15:00 +5°C° 0 mm 2 mps 732 mmHg 95%
    16:00 +6°C° 0 mm 1 mps 732 mmHg 96%
    17:00 +6°C° 0 mm 1 mps 731 mmHg 97%
    18:00 +6°C° 0.1 mm 1 mps 731 mmHg 97%
    19:00 +6°C° 0.1 mm 1 mps 731 mmHg 97%
    20:00 +6°C° 0.1 mm 1 mps 731 mmHg 97%
    21:00 +5°C° 0.1 mm 0 mps 731 mmHg 97%
    22:00 +5°C° 0.1 mm 0 mps 731 mmHg 97%
    23:00 +5°C° 0.1 mm 0 mps 731 mmHg 97%

    21 Enero, Lunes

    Tiempo Temperatura Precipitaciones Viento Presión Humedad
    00:00 +6°C° 0.3 mm 1 mps 731 mmHg 97%
    01:00 +6°C° 0.3 mm 1 mps 731 mmHg 96%
    02:00 +5°C° 0.3 mm 1 mps 731 mmHg 96%
    03:00 +5°C° 0.1 mm 1 mps 731 mmHg 95%
    04:00 +3°C° 0.1 mm 2 mps 731 mmHg 94%
    05:00 +3°C° 0.1 mm 2 mps 731 mmHg 93%
    06:00 +3°C° 0 mm 2 mps 731 mmHg 92%
    07:00 +2°C° 0 mm 2 mps 732 mmHg 92%
    08:00 +2°C° 0 mm 2 mps 732 mmHg 91%
    09:00 +3°C° 0 mm 2 mps 733 mmHg 86%
    10:00 +4°C° 0 mm 2 mps 733 mmHg 81%
    11:00 +5°C° 0 mm 2 mps 734 mmHg 76%
    12:00 +6°C° 0 mm 2 mps 734 mmHg 74%
    13:00 +6°C° 0 mm 2 mps 734 mmHg 71%
    14:00 +7°C° 0 mm 2 mps 734 mmHg 69%
    15:00 +6°C° 0 mm 2 mps 734 mmHg 72%
    16:00 +5°C° 0 mm 2 mps 734 mmHg 76%
    17:00 +5°C° 0 mm 2 mps 734 mmHg 79%
    18:00 +4°C° 0 mm 2 mps 735 mmHg 81%
    19:00 +4°C° 0 mm 2 mps 735 mmHg 83%
    20:00 +3°C° 0 mm 2 mps 736 mmHg 85%
    21:00 +3°C° 0 mm 2 mps 736 mmHg 86%
    22:00 +2°C° 0 mm 2 mps 736 mmHg 88%
    23:00 +2°C° 0 mm 2 mps 737 mmHg 90%

    22 Enero, Martes

    Tiempo Temperatura Precipitaciones Viento Presión Humedad
    00:00 +2°C° 0 mm 2 mps 737 mmHg 90%
    01:00 +1°C° 0 mm 2 mps 737 mmHg 90%
    02:00 +1°C° 0 mm 2 mps 737 mmHg 90%
    03:00 +1°C° 0 mm 2 mps 736 mmHg 90%
    04:00 +1°C° 0 mm 2 mps 736 mmHg 89%
    05:00 -1°C° 0 mm 2 mps 736 mmHg 89%
    06:00 -1°C° 0.2 mm 2 mps 736 mmHg 89%
    07:00 -1°C° 0.2 mm 2 mps 736 mmHg 88%
    08:00 -1°C° 0.2 mm 2 mps 736 mmHg 88%
    09:00 0°C° 0.1 mm 3 mps 736 mmHg 88%
    10:00 +1°C° 0.1 mm 3 mps 735 mmHg 88%
    11:00 +1°C° 0.1 mm 3 mps 735 mmHg 89%
    12:00 +2°C° 0.1 mm 3 mps 735 mmHg 88%
    13:00 +2°C° 0.1 mm 3 mps 734 mmHg 88%
    14:00 +3°C° 0.1 mm 3 mps 733 mmHg 88%
    15:00 +3°C° 0.1 mm 3 mps 733 mmHg 89%
    16:00 +2°C° 0.1 mm 3 mps 732 mmHg 91%
    17:00 +2°C° 0.1 mm 3 mps 732 mmHg 93%
    18:00 +2°C° 0.1 mm 3 mps 731 mmHg 93%
    19:00 +2°C° 0.1 mm 3 mps 731 mmHg 94%
    20:00 +1°C° 0.1 mm 4 mps 731 mmHg 95%
    21:00 +2°C° 0.1 mm 3 mps 730 mmHg 95%
    22:00 +2°C° 0.1 mm 3 mps 730 mmHg 95%
    23:00 +2°C° 0.1 mm 3 mps 730 mmHg 96%

    23 Enero, Miércoles

    Tiempo Temperatura Precipitaciones Viento Presión Humedad
    00:00 +3°C° 0.1 mm 3 mps 729 mmHg 96%
    01:00 +3°C° 0.1 mm 3 mps 728 mmHg 96%
    02:00 +3°C° 0.1 mm 3 mps 728 mmHg 96%
    03:00 +4°C° 0.4 mm 2 mps 727 mmHg 97%
    04:00 +4°C° 0.4 mm 2 mps 726 mmHg 97%
    05:00 +4°C° 0.4 mm 2 mps 726 mmHg 97%
    06:00 +4°C° 1.3 mm 2 mps 726 mmHg 97%
    07:00 +4°C° 1.3 mm 2 mps 725 mmHg 97%
    08:00 +4°C° 1.3 mm 2 mps 725 mmHg 97%
    09:00 +5°C° 1.3 mm 2 mps 725 mmHg 97%
    10:00 +5°C° 1.3 mm 2 mps 725 mmHg 97%
    11:00 +5°C° 1.3 mm 2 mps 725 mmHg 97%
    12:00 +7°C° 0.4 mm 1 mps 724 mmHg 97%
    13:00 +7°C° 0.4 mm 1 mps 724 mmHg 97%
    14:00 +8°C° 0.4 mm 1 mps 723 mmHg 96%
    15:00 +7°C° 4.1 mm 1 mps 723 mmHg 97%
    16:00 +7°C° 4.1 mm 1 mps 722 mmHg 97%
    17:00 +7°C° 4.1 mm 1 mps 722 mmHg 98%
    18:00 +7°C° 2.6 mm 1 mps 722 mmHg 97%
    19:00 +6°C° 2.6 mm 1 mps 722 mmHg 96%
    20:00 +6°C° 2.6 mm 1 mps 722 mmHg 95%
    21:00 +5°C° 0.1 mm 2 mps 722 mmHg 95%
    22:00 +5°C° 0.1 mm 2 mps 722 mmHg 94%
    23:00 +4°C° 0.1 mm 2 mps 722 mmHg 94%
    Mostrar más